Agua Colorada, Mexico

6:41 AM CDT on August 20, 2017 (GMT -0500)
De Guanajuato International | | Change Station

Elev 5968 ft 21.00 °N, 101.48 °W | Updated 58 minutes ago

Partly Cloudy
Partly Cloudy
59 °F
Feels Like 59 °F
N
5
Wind Variable Wind from ENE

Today
High -- | Low -- °F
--% Chance of Precip.
Yesterday
High -- | Low -- °F
Precip. -- in
Pressure 30.30 in
Visibility 8.0 miles
Clouds Scattered Clouds 20000 ft
Dew Point 54 °F
Humidity 82%
Rainfall 0.00 in
Snow Depth Not available.
7:25 AM 8:10 PM
Waning Crescent, 2% visible
METAR MMLO 201043Z 06004KT 8SM SCT200 15/12 A3030 RMK 8/002
Pressure 30.30 in
Visibility 8.0 miles
Clouds Scattered Clouds 20000 ft
Dew Point 54 °F
Humidity 82%
Rainfall 0.00 in
Snow Depth Not available.
7:25 AM 8:10 PM
Waning Crescent, 2% visible
METAR MMLO 201043Z 06004KT 8SM SCT200 15/12 A3030 RMK 8/002

Get Severe Weather Alerts

Thanks for signing up!

Be on the lookout for a verification email in your inbox.

You'll start receiving the daily forecast at 6 AM.

×

10-Day Weather Forecast

No radar image for this location.
×

Almanac

Astronomy

Aug. 20, 2017 Rise Set
Actual Time
Civil Twilight
Nautical Twilight
Astronomical Twilight
Moon
Length of Visible Light
Length of Day
Tomorrow will be .
, % of the Moon is Illuminated

Today's Extremes

Country Highs Country Lows

Community

WunderPhotos

Category 6

Welcome to Category 6. This is the collective home for Weather Underground's featured writeups by Dr. Jeff Masters (right), Bob Henson (left), Chris Burt, and other regular contributors.

Nearby

Air Quality

  Air Quality AQ Index Pollutant
Not available.

Snow Depth

Station Depth Elevation

Earthquake Activity

City Distance Mag. Time & Date
Minimum magnitude displayed is 2.5.

Coastal Water Temperatures

Place Temperature

Stations

Nearby Weather Stations

Station Location Temp. Windchill Dew Point Humidity Wind Precip. Elev Updated Type